Location: Houhaj�rvi
(61.2833°N, 23.0000°E)
Time: 18:41:30
(UTC+00:00)

Lacrosse 4 Rocket - Pass Details

Date: 27 February 2020
Orbit: 537 x 622 km, 68.0° (Epoch: 05 April)

Event Time Altitude Azimuth Distance (km) Brightness Sun altitude
Rises 17:46:02 0° 259° (WSW) 2,812 6.3 -15.1°
Reaches altitude 10° 17:48:20 10° 266° (W) 1,928 5.3 -15.4°
Maximum altitude 17:52:30 44° 339° (NNW) 838 2.5 -15.9°
Enters shadow 17:56:01 15° 49° (NE) 1,696 3.5 -16.3°
